Weather History for Pittsfield, IL

Change the Weather History Date:

Monday, January 11, 2010

  Actual Average (KUIN) Record (KUIN)
Temperature  
Mean Temperature 22 °F 26 °F  
Max Temperature 26 °F 34 °F 59 °F (2013)
Min Temperature 17 °F 18 °F -15 °F (1977)
Degree Days  
Heating Degree Days 44 39  
Month to date heating degree days 425  
Since 1 July heating degree days 2616  
Cooling Degree Days 0 0  
Month to date cooling degree days 0  
Year to date cooling degree days 0  
Moisture  
Dew Point 14 °F    
Average Humidity 68    
Maximum Humidity 80    
Minimum Humidity 55    
Precipitation  
Precipitation 0.00 in 0.04 in 1.06 in (1905)
Month to date precipitation 0.58  
Year to date precipitation 0.58  
Sea Level Pressure  
Sea Level Pressure 30.26 in    
Wind  
Wind Speed 11 mph (WNW)    
Max Wind Speed 17 mph    
Max Gust Speed 22 mph    
Visibility 10 miles    
Events      
T = Trace of Precipitation, MM = Missing Value Source: NWS Daily Summary

Daily Weather History Graph

Daily Weather History Graph

Search for Another Location

Airport:

Trip Planner

Search our weather history database for the weather conditions in past years. The results will help you decide how hot, cold, wet, or windy it might be!

Date:

Astronomy

Jan. 11, 2010 Rise Set
Actual Time 7:23 AM CST 4:59 PM CST
Civil Twilight 6:53 AM CST 5:28 PM CST
Nautical Twilight 6:20 AM CST 6:02 PM CST
Astronomical Twilight 5:47 AM CST 6:34 PM CST
Moon 4:37 AM CST (1/11) 1:49 PM CST (1/11)
Length of Visible Light 10h 35m
Length of Day
9h 35m
Waning Crescent, 11% of the Moon is Illuminated
Jan 11
Waning Crescent
Jan 15
New
Jan 23
First Quarter
Jan 30
Full
Feb 5
Last Quarter

Hourly Weather History & Observations

Time (CST) Temp. Windchill Dew Point Humidity Pressure Visibility Wind Dir Wind Speed Gust Speed Precip Events Conditions
12:06 AM 26.6 °F 15.2 °F 12.2 °F 55% 30.18 in 10.0 mi WSW 13.8 mph 19.6 mph N/A   Clear
12:26 AM 26.6 °F 15.2 °F 12.2 °F 55% 30.18 in 10.0 mi WSW 13.8 mph - N/A   Clear
12:46 AM 26.6 °F 15.7 °F 12.2 °F 55% 30.17 in 10.0 mi WSW 12.7 mph - N/A   Clear
1:06 AM 26.6 °F 15.7 °F 12.2 °F 55% 30.16 in 10.0 mi WSW 12.7 mph 17.3 mph N/A   Clear
1:26 AM 26.6 °F 16.2 °F 12.2 °F 55% 30.16 in 10.0 mi WSW 11.5 mph 20.7 mph N/A   Clear
1:46 AM 26.6 °F 16.8 °F 12.2 °F 55% 30.16 in 10.0 mi WSW 10.4 mph 17.3 mph N/A   Clear
2:06 AM 26.6 °F 18.2 °F 14.0 °F 59% 30.16 in 10.0 mi WSW 8.1 mph - N/A   Clear
2:26 AM 26.6 °F 17.5 °F 14.0 °F 59% 30.16 in 10.0 mi WSW 9.2 mph - N/A   Clear
2:46 AM 26.6 °F 16.8 °F 15.8 °F 64% 30.16 in 10.0 mi WSW 10.4 mph - N/A   Clear
3:06 AM 26.6 °F 17.5 °F 15.8 °F 64% 30.16 in 10.0 mi West 9.2 mph - N/A   Clear
3:26 AM 26.6 °F 16.8 °F 15.8 °F 64% 30.16 in 10.0 mi West 10.4 mph - N/A   Clear
3:46 AM 26.6 °F 16.8 °F 15.8 °F 64% 30.15 in 10.0 mi WSW 10.4 mph - N/A   Clear
4:06 AM 26.6 °F 16.8 °F 15.8 °F 64% 30.15 in 10.0 mi WSW 10.4 mph - N/A   Clear
4:26 AM 24.8 °F 16.1 °F 15.8 °F 69% 30.15 in 10.0 mi WSW 8.1 mph - N/A   Clear
4:46 AM 26.6 °F 19.1 °F 15.8 °F 64% 30.15 in 10.0 mi WSW 6.9 mph - N/A   Clear
5:06 AM 24.8 °F 17.9 °F 15.8 °F 69% 30.15 in 10.0 mi West 5.8 mph - N/A   Clear
5:26 AM 24.8 °F 16.9 °F 15.8 °F 69% 30.15 in 10.0 mi West 6.9 mph - N/A   Clear
5:46 AM 26.6 °F 20.0 °F 17.6 °F 69% 30.15 in 10.0 mi West 5.8 mph - N/A   Clear
6:07 AM 26.6 °F 19.1 °F 17.6 °F 69% 30.15 in 10.0 mi West 6.9 mph - N/A   Clear
6:26 AM 26.6 °F 18.2 °F 17.6 °F 69% 30.16 in 10.0 mi West 8.1 mph - N/A   Mostly Cloudy
6:46 AM 26.6 °F 19.1 °F 17.6 °F 69% 30.18 in 10.0 mi West 6.9 mph - N/A   Overcast
7:06 AM 26.6 °F 18.2 °F 17.6 °F 69% 30.18 in 10.0 mi West 8.1 mph - N/A   Overcast
7:26 AM 26.6 °F 18.2 °F 17.6 °F 69% 30.19 in 10.0 mi WNW 8.1 mph - N/A   Overcast
7:46 AM 24.8 °F 15.3 °F 17.6 °F 74% 30.20 in 10.0 mi WNW 9.2 mph - N/A   Overcast
8:06 AM 24.8 °F 17.9 °F 17.6 °F 74% 30.20 in 10.0 mi WNW 5.8 mph - N/A   Overcast
8:26 AM 24.8 °F 15.3 °F 17.6 °F 74% 30.20 in 10.0 mi WNW 9.2 mph - N/A   Overcast
8:46 AM 24.8 °F 15.3 °F 17.6 °F 74% 30.21 in 10.0 mi NW 9.2 mph - N/A   Mostly Cloudy
9:06 AM 24.8 °F 14.0 °F 17.6 °F 74% 30.22 in 10.0 mi NW 11.5 mph - N/A   Overcast
9:26 AM 24.8 °F 16.1 °F 17.6 °F 74% 30.23 in 10.0 mi NW 8.1 mph - N/A   Mostly Cloudy
10:06 AM 24.8 °F 13.4 °F 17.6 °F 74% 30.24 in 10.0 mi NNW 12.7 mph - N/A   Clear
10:27 AM 24.8 °F 12.9 °F 14.0 °F 64% 30.25 in 10.0 mi NNW 13.8 mph - N/A   Clear
10:46 AM 24.8 °F 12.4 °F 14.0 °F 64% 30.25 in 10.0 mi NNW 15.0 mph - N/A   Clear
11:08 AM 24.8 °F 11.9 °F 15.8 °F 69% 30.25 in 10.0 mi NW 16.1 mph 21.9 mph N/A   Clear
11:26 AM 24.8 °F 14.6 °F 15.8 °F 69% 30.26 in 10.0 mi NW 10.4 mph - N/A   Scattered Clouds
11:47 AM 23.0 °F 10.1 °F 15.8 °F 74% 30.26 in 10.0 mi NNW 15.0 mph - N/A   Overcast
12:06 PM 21.2 °F 7.3 °F 15.8 °F 80% 30.26 in 10.0 mi NNW 16.1 mph - N/A   Overcast
12:27 PM 21.2 °F 6.8 °F 15.8 °F 80% 30.27 in 10.0 mi NNW 17.3 mph 20.7 mph N/A   Overcast
12:47 PM 23.0 °F 9.6 °F 15.8 °F 74% 30.27 in 10.0 mi NW 16.1 mph - N/A   Overcast
1:06 PM 23.0 °F 10.6 °F 15.8 °F 74% 30.28 in 7.0 mi NNW 13.8 mph - N/A   Overcast
1:27 PM 23.0 °F 11.1 °F 15.8 °F 74% 30.28 in 10.0 mi NNW 12.7 mph - N/A   Overcast
1:47 PM 23.0 °F 9.6 °F 15.8 °F 74% 30.29 in 7.0 mi NW 16.1 mph - N/A   Mostly Cloudy
2:06 PM 23.0 °F 11.7 °F 14.0 °F 68% 30.30 in 7.0 mi NNW 11.5 mph - N/A   Clear
2:26 PM 23.0 °F 12.4 °F 14.0 °F 68% 30.30 in 10.0 mi NNW 10.4 mph - N/A   Clear
2:46 PM 23.0 °F 9.6 °F 12.2 °F 63% 30.30 in 10.0 mi NNW 16.1 mph - N/A   Clear
3:06 PM 23.0 °F 10.1 °F 12.2 °F 63% 30.31 in 10.0 mi NNW 15.0 mph - N/A   Clear
3:26 PM 23.0 °F 11.1 °F 12.2 °F 63% 30.32 in 10.0 mi NNW 12.7 mph - N/A   Clear
3:46 PM 21.2 °F 8.9 °F 12.2 °F 68% 30.32 in 10.0 mi NNW 12.7 mph - N/A   Clear
4:06 PM 21.2 °F 10.1 °F 12.2 °F 68% 30.33 in 10.0 mi NNW 10.4 mph - N/A   Clear
4:26 PM 21.2 °F 10.1 °F 12.2 °F 68% 30.34 in 10.0 mi NNW 10.4 mph - N/A   Clear
4:46 PM 19.4 °F 9.5 °F 10.4 °F 68% 30.35 in 10.0 mi NNW 8.1 mph - N/A   Clear
5:07 PM 19.4 °F 9.5 °F 10.4 °F 68% 30.36 in 10.0 mi NW 8.1 mph - N/A   Clear
5:26 PM 17.6 °F 6.4 °F 10.4 °F 73% 30.38 in 10.0 mi NW 9.2 mph - N/A   Clear
5:46 PM 19.4 °F 7.2 °F 10.4 °F 68% 30.39 in 10.0 mi NW 11.5 mph - N/A   Clear
6:06 PM 19.4 °F 8.6 °F 10.4 °F 68% 30.40 in 10.0 mi NW 9.2 mph - N/A   Clear
6:26 PM 17.6 °F 6.4 °F 10.4 °F 73% 30.41 in 10.0 mi NW 9.2 mph - N/A   Scattered Clouds
6:46 PM 19.4 °F 9.5 °F 12.2 °F 74% 30.41 in 10.0 mi NW 8.1 mph - N/A   Overcast
7:06 PM 19.4 °F 10.4 °F 12.2 °F 74% 30.43 in 10.0 mi NW 6.9 mph - N/A   Overcast
7:27 PM 19.4 °F 9.5 °F 12.2 °F 74% 30.44 in 10.0 mi NW 8.1 mph - N/A   Overcast
7:46 PM 19.4 °F 7.9 °F 12.2 °F 74% 30.45 in 10.0 mi NW 10.4 mph - N/A   Overcast
8:06 PM 19.4 °F 6.6 °F 12.2 °F 74% 30.45 in 10.0 mi NNW 12.7 mph - N/A   Overcast
8:27 PM 19.4 °F 8.6 °F 14.0 °F 80% 30.45 in 10.0 mi NNW 9.2 mph - N/A   Overcast
8:46 PM 19.4 °F 8.6 °F 14.0 °F 80% 30.45 in 10.0 mi North 9.2 mph - N/A   Overcast
9:26 PM 19.4 °F 11.5 °F 14.0 °F 80% 30.45 in 10.0 mi NNW 5.8 mph - N/A   Overcast
9:46 PM 19.4 °F 11.5 °F 15.8 °F 86% 30.47 in 10.0 mi NNW 5.8 mph - N/A   Overcast
10:06 PM 19.4 °F 10.4 °F 15.8 °F 86% 30.47 in 10.0 mi NNW 6.9 mph - N/A   Overcast
10:26 PM 19.4 °F 12.8 °F 15.8 °F 86% 30.47 in 7.0 mi NNW 4.6 mph - N/A Snow Light Snow
10:46 PM 19.4 °F 11.5 °F 15.8 °F 86% 30.47 in 7.0 mi NW 5.8 mph - N/A Snow Light Snow
11:06 PM 19.4 °F 10.4 °F 15.8 °F 86% 30.47 in 7.0 mi NW 6.9 mph - N/A Snow Light Snow
11:26 PM 19.4 °F 11.5 °F 15.8 °F 86% 30.46 in 10.0 mi NW 5.8 mph - N/A   Overcast
11:46 PM 19.4 °F 11.5 °F 15.8 °F 86% 30.47 in 10.0 mi WNW 5.8 mph - N/A   Overcast